Location: Espelette
(43.3402°N, 1.4474°W)
Time: 00:55:23
(UTC+00:00)

NOSS 3-1 (A) - Pass Details

Date: 19 May 2025
Orbit: 667 x 1541 km, 63.4° (Epoch: 14 June)

Event Time Altitude Azimuth Distance (km) Brightness Sun altitude
Exits shadow 22:37:13 16° 237° (WSW) 1,819 4.8 -23.7°
Maximum altitude 22:41:04 56° 312° (NW) 919 3.6 -24.0°
Drops below altitude 10° 22:46:46 10° 31° (NNE) 2,569 6.2 -24.3°
Sets 22:49:36 0° 35° (NE) 3,651 7.0 -24.5°
